Regional Weather Roundup
Issued by NWS

Home | Current Version | Previous Version | Text Only | Print | Product List | Glossary On
Versions: 1 2 3 4 5 6 7 8 9 10 11 12 13 14 15 16 17 18 19 20 21 22 23 24 25 26 27 28 29 30 31 32 33 34 35 36 37 38 39 40 41 42 43 44 45 46 47 48 49 50
007
ASUS44 KJAN 041510
RWRMS

MISSISSIPPI HOURLY WEATHER ROUNDUP
NATIONAL WEATHER SERVICE JACKSON MS
900 AM CST WED MAR 04 2015

NOTE: "FAIR: INDICATES FEW OR NO CLOUDS BELOW 12,000 FEET WITH NO
SIGNIFICANT WEATHER AND/OR OBSTRUCTIONS TO VISIBILITY.

MSZ001>002-007>008-010>013-018>021-025>028-034>036-041600-
NORTHWEST MISSISSIPPI

CITY           SKY/WX    TMP DP  RH WIND       PRES   REMARKS
CLARKSDALE     CLOUDY    64  64 100 S7        29.91R
CLEVELAND      RAIN      65  65 100 SW10      29.91R
GREENWOOD      CLOUDY    70  65  84 S15G23    29.92S
GREENVILLE     CLOUDY    67  65  93 S15       29.91R FOG
OLIVE BRANCH   CLOUDY    52  52 100 N8        29.92R FOG
OXFORD         CLOUDY    64  63  94 SW7       29.92F FOG
TUNICA         CLOUDY    50  50 100 N15       29.93R FOG
$$

MSZ003>006-009-014>017-022>024-029>033-037>039-041600-
NORTHEAST MISSISSIPPI

CITY           SKY/WX    TMP DP  RH WIND       PRES   REMARKS
COLUMBUS AFB   PTSUNNY   68  66  94 S10       29.96S
CORINTH        DRIZZLE   66  63  88 SW12      29.90R
GOLDN TRIANGLE CLOUDY    68  64  88 S13       29.97S
STARKVILLE     PTSUNNY   68  64  88 S7        29.97S
TUPELO         LGT RAIN  66  63  90 S8        29.93S FOG
$$

MSZ040-058-041600-
CENTRAL MISSISSIPPI

CITY           SKY/WX    TMP DP  RH WIND       PRES   REMARKS
JACKSON INTL   PTSUNNY   72  65  78 S18G28    29.97S
JACKSON HAWKNS MOSUNNY   71  66  84 S14       29.98R
MERIDIAN KEY   CLOUDY    69  66  90 S10       30.01S
MERIDIAN NAS   PTSUNNY   71  65  81 S12G18    30.01S
VICKSBURG      CLOUDY    72  66  81 S8        29.97R
$$

MSZ059>079-041600-
SOUTH MISSISSIPPI

CITY           SKY/WX    TMP DP  RH WIND       PRES   REMARKS
BROOKHAVEN     PTSUNNY   70  70 100 S8        30.02S
HATTIESBURG    CLOUDY    72  67  84 S14       30.03R
MCCOMB         CLOUDY    69  67  93 S10       30.01R
NATCHEZ        CLOUDY    70  66  88 S8        29.99S
PINE BELT      CLOUDY    68  64  88 SW6       30.03S
$$

MSZ080>082-041600-
COASTAL MISSISSIPPI

CITY           SKY/WX    TMP DP  RH WIND       PRES   REMARKS
BAY ST LOUIS   PTSUNNY   72  64  78 S7        30.04R
BILOXI         MOSUNNY   70  70 100 S12       30.04R
PASCAGOULA     SUNNY     75  67  76 S10       30.05R
GULFPORT       PTSUNNY   70  66  87 S9        30.04R
$$



USA.gov is the U.S. government's official web portal to all federal, state and local government web resources and services.